Date,TemperatureHighF,TemperatureAvgF,TemperatureLowF,DewpointHighF,DewpointAvgF,DewpointLowF,HumidityHigh,HumidityAvg,HumidityLow,PressureMaxIn,PressureMinIn,WindSpeedMaxMPH,WindSpeedAvgMPH,GustSpeedMaxMPH,PrecipitationSumIn
2013-9-4,79.8,74.7,73.0,77.2,73.7,70.9,99,97,91,28.63,28.55,12,7,29,0.70
2013-9-5,77.2,73.4,70.9,75.6,72.2,70.3,99,96,93,28.67,28.54,16,4,36,0.70
2013-9-6,71.7,71.4,70.9,70.5,70.1,69.9,97,96,95,28.65,28.58,7,4,16,0.01
2013-9-11,82.1,76.3,73.0,77.4,73.8,70.1,97,92,82,28.70,28.62,11,6,19,0.08
2013-9-12,80.1,75.5,73.5,77.9,74.4,72.6,99,96,92,28.62,28.51,10,6,21,0.57
2013-9-13,85.4,77.2,73.8,78.7,74.7,71.8,99,92,78,28.55,28.45,11,6,19,0.04
2013-9-14,84.7,77.1,72.6,78.3,74.0,70.8,96,90,76,28.66,28.51,6,2,13,0.05
2013-9-15,89.0,79.3,73.3,79.2,74.4,71.2,94,85,64,28.71,28.62,5,1,12,0.00
2013-9-16,89.8,79.3,74.6,78.7,74.9,72.2,96,87,68,28.71,28.60,9,3,17,0.00
2013-9-17,90.1,79.2,74.0,78.8,74.4,72.2,96,86,64,28.68,28.59,8,4,21,0.01
2013-9-18,90.3,79.8,74.2,78.8,74.1,71.8,94,83,63,28.66,28.57,6,2,17,0.00
2013-9-19,90.7,80.4,75.5,79.4,74.4,71.5,89,83,64,28.67,28.59,10,4,22,0.00
2013-9-20,89.4,79.3,76.0,79.2,75.0,72.6,92,87,70,28.66,28.57,13,5,23,0.00
2013-9-21,83.4,77.2,74.1,77.1,73.9,72.3,95,90,81,28.62,28.52,13,3,23,0.35
2013-9-22,89.6,79.6,73.6,78.0,73.7,69.9,96,83,61,28.68,28.57,6,2,13,0.00
2013-9-23,93.4,80.6,74.0,78.4,73.6,68.7,91,80,55,28.73,28.64,7,2,16,0.00
2013-9-24,90.9,80.4,74.9,77.2,73.5,70.2,92,80,54,28.71,28.61,9,3,22,0.02
2013-9-25,90.7,80.1,73.2,76.1,72.1,69.4,90,78,56,28.66,28.56,6,2,18,0.00
2013-9-26,90.0,80.1,75.0,75.6,71.9,69.8,89,77,58,28.65,28.54,9,2,22,0.00
2013-9-27,90.0,80.1,74.4,75.4,70.6,63.7,90,74,58,28.66,28.55,8,3,18,0.00
2013-9-28,90.0,79.8,74.3,75.6,70.8,67.1,88,75,57,28.68,28.58,11,3,22,0.00
2013-9-29,90.5,80.6,74.8,77.2,73.3,71.1,89,79,61,28.69,28.59,7,2,17,0.00
2013-9-30,90.2,79.5,73.3,78.6,73.6,70.2,93,82,63,28.73,28.63,9,3,21,0.06
2013-10-1,87.6,78.5,74.5,78.8,74.0,70.7,96,86,70,28.72,28.63,12,5,29,0.41
2013-10-2,88.6,77.9,72.5,77.7,73.9,70.2,96,88,67,28.68,28.59,11,6,20,0.04
2013-10-3,87.5,77.6,73.8,80.4,74.2,71.8,96,90,70,28.69,28.59,12,6,27,0.21
2013-10-4,88.7,76.9,69.7,79.0,73.1,68.5,97,88,67,28.70,28.56,7,2,16,0.14
2013-10-5,86.9,76.2,70.4,79.2,72.6,68.6,97,89,72,28.68,28.58,9,2,17,0.04
2013-10-6,89.9,78.0,72.4,79.4,73.2,69.0,92,86,61,28.67,28.56,4,1,16,0.01
2013-10-7,91.3,79.6,74.3,79.5,73.3,71.3,91,82,59,28.67,28.59,6,2,14,0.00
2013-10-8,84.1,77.8,74.6,76.4,73.1,71.4,91,86,77,28.70,28.61,6,2,19,0.00
2013-10-9,78.3,74.8,73.3,73.4,70.7,69.4,91,87,83,28.67,28.63,4,1,11,0.00